Location: Newark
(7.0858°N, 171.3717°E)
Time: 07:19:31
(UTC+00:00)

Courier 1B - Pass Details

Date: 01 December 2020
Orbit: 962 x 1209 km, 28.3° (Epoch: 20 January)

Event Time Altitude Azimuth Distance (km) Brightness Sun altitude
Rises 10:02:44 0° 294° (WNW) 3,658 - -52.9°
Reaches altitude 10° 10:06:51 10° 318° (NW) 2,743 - -53.8°
Maximum altitude 10:10:11 14° 349° (N) 2,482 - -54.6°
Drops below altitude 10° 10:13:36 10° 20° (NNE) 2,818 - -55.3°
Sets 10:17:57 0° 44° (NE) 3,829 - -56.3°
